Home   Weather   Uroševac   Past weeks

Flag for Kosovo Past Weather in Uroševac, Kosovo — Yesterday and Last 2 Weeks

64 °F

Scattered clouds.

Feels Like: 64 °F
Forecast: 46 / 65 °F
Wind: No wind

Location: Skopje-Petrovec

Current Time: Oct 25, 2016 at 2:02:14 PM

Latest Report: Oct 25, 2016 at 1:30 PM

Visibility: N/A

Pressure: 30.33 "Hg (28.33 "Hg at 582m altitude)

Humidity: 73%

Dew Point: 55 °F

Location of UroševacLocation

Past Weather in Uroševac — Graph


Uroševac Temperature Yesterday

Maximum temperature yesterday: 72 °F (at 4:00 PM)
Minimum temperature yesterday: 52 °F (at 5:30 AM)
Average temperature yesterday: 59 °F

High & Low Weather Summary for the Past Weeks

High72 °F (Oct 24, 4:00 PM)100% (Oct 10, 8:00 PM)30.39 "Hg (Oct 10, 8:00 PM)
Low36 °F (Oct 13, 4:30 AM)40% (Oct 12, 5:00 PM)29.68 "Hg (Oct 12, 3:00 AM)
Average56 °F83%30.13 "Hg
* Reported Oct 10 1:00 PM — Oct 25 1:00 PM, Uroševac, Weather by CustomWeather, © 2016

Note: Actual official high and low records may vary slightly from our data, if they occured in-between our weather recording intervals... More about our weather records


Uroševac Weather History for the Previous 24 Hours

Scroll right to see more
Time TempWeatherWind HumidityBarometerVisibility
1:00 PM
Tue, Oct 25
64 °FBroken clouds.No wind73%30.36 "HgN/A
12:30 PM64 °FBroken clouds.No wind78%30.36 "HgN/A
12:00 PM61 °FPartly sunny.No wind83%30.36 "HgN/A
11:30 AM61 °FMore clouds than sun.No wind83%30.36 "Hg5 mi
11:00 AM57 °FMore clouds than sun.No wind88%30.39 "Hg4 mi
10:30 AM57 °FOvercast.No wind94%30.39 "Hg4 mi
10:00 AM57 °FOvercast.No wind88%30.39 "Hg4 mi
9:30 AM55 °FOvercast.No wind94%30.39 "Hg4 mi
9:00 AM55 °FOvercast.No wind94%30.39 "Hg4 mi
8:30 AM54 °FFog.No wind100%30.39 "Hg3 mi
8:00 AM54 °FFog.No wind94%30.36 "Hg3 mi
7:30 AM54 °FOvercast.No wind94%30.36 "Hg4 mi
7:00 AM54 °FOvercast.No wind94%30.36 "Hg4 mi
6:00 AM52 °FPassing clouds.No wind100%30.36 "Hg4 mi
5:00 AM52 °FPassing clouds.No wind94%30.36 "Hg4 mi
4:30 AM52 °FPassing clouds.No wind94%30.36 "Hg5 mi
4:00 AM50 °FPassing clouds.No wind100%30.33 "Hg4 mi
3:30 AM50 °FPassing clouds.No wind94%30.36 "Hg4 mi
3:00 AM48 °FPassing clouds.No wind100%30.36 "Hg4 mi
2:30 AM48 °FClear.No wind100%30.36 "Hg10 mi
2:00 AM50 °FClear.No wind94%30.36 "Hg10 mi
1:30 AM50 °FClear.No wind100%30.36 "Hg10 mi
1:00 AM50 °FClear.No wind100%30.36 "Hg4 mi
12:30 AM52 °FClear.No wind94%30.36 "Hg5 mi
12:00 AM54 °FClear.No wind94%30.36 "Hg4 mi
11:30 PM
Mon, Oct 24
52 °FClear.2 mph94%30.36 "Hg10 mi
11:00 PM54 °FClear.2 mph88%30.33 "Hg10 mi
10:30 PM52 °FClear.No wind94%30.33 "Hg10 mi
10:00 PM54 °FClear.No wind88%30.33 "Hg10 mi
9:30 PM55 °FClear.2 mph88%30.30 "Hg10 mi
9:00 PM55 °FClear.1 mph94%30.30 "Hg10 mi
8:30 PM55 °FClear.1 mph88%30.30 "Hg10 mi
8:00 PM57 °FClear.1 mph88%30.30 "Hg10 mi
7:30 PM57 °FClear.1 mph88%30.30 "Hg10 mi
7:00 PM59 °FClear.1 mph88%30.30 "Hg10 mi
6:30 PM61 °FClear.2 mph83%30.27 "Hg10 mi
6:00 PM63 °FClear.2 mph77%30.27 "Hg10 mi
5:30 PM64 °FSunny.No wind78%30.27 "Hg10 mi
5:00 PM68 °FSunny.2 mph64%30.27 "Hg10 mi
4:30 PM70 °FSunny.1 mph57%30.27 "Hg10 mi
4:00 PM72 °FSunny.1 mph57%30.27 "Hg10 mi
3:30 PM70 °FSunny.1 mph57%30.27 "Hg10 mi
3:00 PM70 °FPassing clouds.2 mph60%30.27 "HgN/A
2:30 PM70 °FPassing clouds.2 mph60%30.27 "HgN/A
2:00 PM68 °FPassing clouds.2 mph64%30.30 "HgN/A
Weather by CustomWeather, © 2016

See weather overviewHow to use our weather pages